This demonstration page uses our WeatherBlox Daily Observations layout. Learn more.

Left ArrowRight Arrow

47.50024, -111.30081

Hourly Observations for May 25, 2019

Temp ( °F °C ) Dew Point ( °F °C ) Humidity (%) Winds ( mph kmh ) Pressure ( in mb ) Visibility ( mi km ) Precip ( " mm )
12:53 am 00:53 Mostly Cloudy 47 8.3 43 6.1 86 86 SSW 7 11 29.83 1010 10 16 0.00 0.00
1:53 am 01:53 Mostly Clear 45 7.2 42 5.6 90 90 SW 7 11 29.84 1010 10 16 0.00 0.00
2:53 am 02:53 Cloudy 47 8.3 43 6.1 86 86 SW 8 13 29.84 1011 10 16 0.00 0.00
3:53 am 03:53 Cloudy 47 8.3 43 6.1 86 86 SW 7 11 29.84 1011 10 16 0.00 0.00
4:53 am 04:53 Cloudy 47 8.3 43 6.1 86 86 WSW 7 11 29.84 1011 10 16 0.00 0.00
5:53 am 05:53 Cloudy 47 8.3 43 6.1 86 86 W 8 13 29.85 1011 10 16 0.00 0.00
6:53 am 06:53 Cloudy 48 8.9 45 7.2 89 89 SW 6 9 29.86 1011 10 16 0.00 0.00
7:53 am 07:53 Cloudy 50 10 44 6.7 80 80 W 7 11 29.87 1012 10 16 0.00 0.00
8:53 am 08:53 Cloudy 52 11.1 44 6.7 75 75 W 6 9 29.89 1012 10 16 0.00 0.00
9:53 am 09:53 Mostly Sunny 53 11.7 45 7.2 74 74 VRB 7 11 29.90 1013 10 16 0.00 0.00
10:53 am 10:53 Cloudy 55 12.8 44 6.7 67 67 WNW 7 11 29.91 1013 10 16 0.00 0.00
11:53 am 11:53 Cloudy 56 13.3 45 7.2 67 67 NW 7 11 29.91 1013 10 16 0.00 0.00
12:53 pm 12:53 Sunny 59 15 44 6.7 58 58 N 6 9 29.88 1012 10 16 0.00 0.03
1:53 pm 13:53 Mostly Cloudy 60 15.6 44 6.7 56 56 N 8 13 29.87 1012 10 16 0.00 0.00
2:53 pm 14:53 Partly Cloudy 63 17.2 41 5 45 45 E 5 7 29.87 1012 10 16 0.00 0.00
3:53 pm 15:53 Mostly Sunny 62 16.7 42 5.6 48 48 E 8 13 29.86 1011 10 16 0.00 0.00
4:53 pm 16:53 Mostly Cloudy 62 16.7 45 7.2 54 54 ESE 10 17 29.87 1011 10 16 0.00 0.00
5:53 pm 17:53 Mostly Cloudy 61 16.1 45 7.2 56 56 ESE 9 15 29.87 1012 10 16 0.00 0.00
6:53 pm 18:53 Cloudy 60 15.6 44 6.7 56 56 ESE 7 11 29.87 1011 10 16 0.00 0.00
7:53 pm 19:53 Sunny 57 13.9 46 7.8 67 67 SE 7 11 29.88 1012 10 16 0.00 0.00
8:53 pm 20:53 Cloudy 55 12.8 45 7.2 69 69 N 5 7 29.88 1012 10 16 0.00 0.00
9:53 pm 21:53 Cloudy 53 11.7 47 8.3 80 80 NNE 13 20 29.91 1013 10 16 0.00 0.00
10:53 pm 22:53 Cloudy 53 11.7 46 7.8 77 77 NE 15 24 29.92 1013 10 16 0.00 0.00
11:53 pm 23:53 Cloudy 52 11.1 46 7.8 80 80 NE 9 15 29.93 1014 10 16 0.00 0.00

Powered by AerisWeather